Flag for Colombia Weather past 2 weeks in Bogota, Colombia

Now
54 °F

Passing clouds.


Feels Like: 54 °F
Forecast: 44 / 62 °F
Wind: No wind

Location: Bogota / Eldorado

Current Time: Jan 28, 2015 at 11:41:44 PM

Latest Report: Jan 28, 2015 at 11:00 PM


Visibility: 6 mi

Pressure: 30.29 "Hg

Humidity: 88%

Dew point: 50 °F

Location of BogotaLocation

Historic Weather in Bogota — Graph

°F

Bogota temperature yesterday

Maximum temperature yesterday: 70 °F (at 12:00 PM)
Minimum temperature yesterday: 52 °F (at 5:00 AM)
Average temperature yesterday: 58 °F

Past Weeks' High & Low Weather Summary

 TemperatureHumidityPressure
High70 °F (Jan 14, 1:00 PM)100% (Jan 16, 11:00 PM)30.40 "Hg (Jan 16, 11:00 PM)
Low43 °F (Jan 26, 6:00 AM)38% (Jan 25, 12:00 PM)30.19 "Hg (Jan 25, 4:00 PM)
Average57 °F78%30.31 "Hg
* Reported Jan 13 10:00 PM — Jan 28 10:00 PM, Bogota, Weather by CustomWeather, © 2014

Note: Actual official high and low records may vary slightly from our data, if they occured in-between our weather recording intervals... More about our weather records

Advertising

Bogota weather history for previous 24 hours

 ConditionsComfort  
Time TempWeatherWind HumidityBarometerVisibility
10:00 PM
Jan 28
55 °FPassing clouds.3 mph88%30.30 "Hg6 mi
9:00 PM55 °FPassing clouds.5 mph88%30.29 "Hg6 mi
8:00 PM55 °FPassing clouds.2 mph88%30.27 "HgN/A
7:00 PM61 °FPassing clouds.8 mph72%30.22 "HgN/A
6:00 PM61 °FPassing clouds.8 mph72%30.22 "HgN/A
5:00 PM63 °FScattered clouds.14 mph64%30.21 "HgN/A
4:00 PM64 °FScattered clouds.12 mph60%30.21 "HgN/A
3:00 PM68 °FScattered clouds.16 mph53%30.21 "HgN/A
2:00 PM66 °FScattered clouds.8 mph56%30.24 "HgN/A
1:00 PM66 °FScattered clouds.9 mph46%30.27 "HgN/A
12:00 PM66 °FScattered clouds.7 mph40%30.29 "HgN/A
11:00 AM64 °FScattered clouds.7 mph46%30.31 "HgN/A
10:00 AM63 °FScattered clouds.7 mph52%30.33 "HgN/A
9:00 AM59 °FScattered clouds.2 mph68%30.33 "HgN/A
8:00 AM55 °FScattered clouds.5 mph88%30.33 "Hg6 mi
7:00 AM46 °FFog.2 mph93%30.31 "Hg5 mi
6:00 AM46 °FPassing clouds.3 mph100%30.28 "Hg1 mi
4:00 AMN/AFog.2 mphN/AN/A0 mi
3:00 AM48 °FFog.2 mph100%30.36 "Hg1 mi
2:00 AM45 °FLight fog.3 mph100%30.29 "Hg1 mi
12:00 AM52 °FScattered showers. Passing clouds.2 mph94%30.33 "HgN/A
Weather by CustomWeather, © 2014

See weather overviewHow to use our weather pages